| time (UTC) | temp F | wind direction | speed MPH | gust MPH | rain 1hr in | rain 24hr in | rain mn in | humidity % | barometer mb |
| 20260510130012 | 55 | 221 | 0.0 | 0.0 | 0.00 | 0.01 | 0.00 | 95 | 1008.4 |
| 20260510124511 | 55 | 221 | 0.0 | 0.0 | 0.00 | 0.02 | 0.00 | 94 | 1008.4 |
| 20260510123009 | 55 | 221 | 0.0 | 0.0 | 0.00 | 0.02 | 0.00 | 94 | 1008.4 |
| 20260510121509 | 55 | 221 | 0.0 | 0.0 | 0.00 | 0.02 | 0.00 | 94 | 1008.4 |
| 20260510120007 | 55 | 221 | 0.0 | 0.0 | 0.00 | 0.02 | 0.00 | 94 | 1008.3 |
| 20260510114505 | 55 | 221 | 0.0 | 0.0 | 0.00 | 0.04 | 0.00 | 94 | 1008.3 |
| 20260510113003 | 55 | 221 | 0.0 | 0.0 | 0.00 | 0.04 | 0.00 | 94 | 1008.4 |
| 20260510111503 | 55 | 221 | 0.0 | 0.0 | 0.00 | 0.04 | 0.00 | 94 | 1008.5 |
| 20260510110004 | 55 | 221 | 0.0 | 0.0 | 0.00 | 0.04 | 0.00 | 94 | 1008.7 |
| 20260510104600 | 56 | 221 | 0.0 | 0.0 | 0.00 | 0.04 | 0.00 | 94 | 1008.7 |
| 20260510103100 | 56 | 221 | 0.0 | 0.0 | 0.00 | 0.04 | 0.00 | 94 | 1008.6 |
| 20260510101557 | 56 | 221 | 0.0 | 0.0 | 0.00 | 0.04 | 0.00 | 94 | 1008.7 |
| 20260510100055 | 56 | 221 | 0.0 | 0.0 | 0.00 | 0.04 | 0.00 | 93 | 1008.7 |
| 20260510094554 | 56 | 221 | 0.0 | 0.0 | 0.00 | 0.04 | 0.00 | 93 | 1008.6 |
| 20260510093052 | 57 | 221 | 0.0 | 0.0 | 0.00 | 0.04 | 0.00 | 93 | 1008.5 |
| 20260510091552 | 57 | 221 | 0.0 | 0.0 | 0.00 | 0.04 | 0.00 | 93 | 1008.5 |
| 20260510090052 | 57 | 221 | 0.0 | 0.0 | 0.00 | 0.04 | 0.00 | 93 | 1008.4 |
| 20260510084548 | 57 | 221 | 0.0 | 0.0 | 0.00 | 0.05 | 0.00 | 93 | 1008.5 |
| 20260510083047 | 57 | 221 | 0.0 | 0.0 | 0.00 | 0.05 | 0.00 | 92 | 1008.6 |
| 20260510081549 | 57 | 221 | 0.0 | 0.0 | 0.00 | 0.05 | 0.00 | 92 | 1008.6 |
| 20260510080042 | 58 | 221 | 0.0 | 0.0 | 0.00 | 0.05 | 0.00 | 92 | 1008.7 |
| 20260510074541 | 58 | 221 | 0.0 | 0.0 | 0.00 | 0.05 | 0.00 | 91 | 1008.7 |
| 20260510073054 | 58 | 221 | 0.0 | 0.0 | 0.00 | 0.05 | 0.00 | 91 | 1008.7 |
| 20260510071537 | 59 | 221 | 0.0 | 0.0 | 0.00 | 0.05 | 0.00 | 91 | 1008.8 |
| 20260510070034 | 59 | 221 | 0.0 | 0.0 | 0.00 | 0.05 | 0.00 | 90 | 1008.8 |
| 20260510064541 | 59 | 221 | 0.0 | 0.0 | 0.00 | 0.05 | 0.05 | 90 | 1008.7 |
| 20260510063038 | 60 | 221 | 0.0 | 0.0 | 0.00 | 0.05 | 0.05 | 89 | 1008.7 |
| 20260510061532 | 60 | 221 | 0.0 | 0.0 | 0.00 | 0.05 | 0.05 | 89 | 1008.6 |
| 20260510060032 | 60 | 221 | 0.0 | 0.0 | 0.00 | 0.05 | 0.05 | 88 | 1008.7 |
| 20260510054531 | 61 | 221 | 0.0 | 0.0 | 0.00 | 0.05 | 0.05 | 87 | 1008.6 |
| 20260510053034 | 61 | 221 | 0.0 | 0.0 | 0.00 | 0.05 | 0.05 | 86 | 1008.7 |
| 20260510051532 | 62 | 221 | 0.0 | 0.0 | 0.00 | 0.05 | 0.05 | 85 | 1008.8 |
| 20260510050036 | 62 | 221 | 0.0 | 0.0 | 0.00 | 0.05 | 0.05 | 84 | 1008.7 |
| 20260510044539 | 63 | 221 | 0.0 | 0.0 | 0.00 | 0.05 | 0.05 | 83 | 1008.7 |
| 20260510043028 | 64 | 221 | 0.0 | 0.0 | 0.00 | 0.05 | 0.05 | 81 | 1008.6 |
| 20260510041528 | 65 | 221 | 0.0 | 0.0 | 0.00 | 0.05 | 0.05 | 80 | 1008.5 |
| 20260510040118 | 65 | 221 | 0.0 | 0.0 | 0.00 | 0.05 | 0.05 | 78 | 1008.4 |
| 20260510034538 | 66 | 221 | 0.0 | 1.0 | 0.00 | 0.05 | 0.05 | 76 | 1008.3 |
| 20260510033106 | 67 | 221 | 0.0 | 1.0 | 0.00 | 0.05 | 0.05 | 75 | 1008.2 |
| 20260510031600 | 69 | 250 | 0.0 | 0.0 | 0.00 | 0.05 | 0.05 | 72 | 1008.0 |
| 20260510030058 | 70 | 250 | 0.0 | 1.0 | 0.00 | 0.05 | 0.05 | 70 | 1007.8 |
| 20260510024533 | 72 | 250 | 0.0 | 0.0 | 0.00 | 0.05 | 0.05 | 68 | 1007.8 |
| 20260510023033 | 74 | 250 | 0.0 | 0.0 | 0.00 | 0.05 | 0.05 | 63 | 1007.8 |
| 20260510021537 | 77 | 250 | 0.0 | 0.0 | 0.00 | 0.05 | 0.05 | 58 | 1007.7 |
| 20260510020033 | 78 | 250 | 0.0 | 1.0 | 0.00 | 0.05 | 0.05 | 54 | 1007.7 |
| 20260510014533 | 79 | 250 | 0.0 | 2.0 | 0.00 | 0.05 | 0.05 | 51 | 1007.7 |
| 20260510013030 | 78 | 245 | 0.0 | 2.0 | 0.00 | 0.05 | 0.05 | 51 | 1007.6 |
| 20260510011531 | 79 | 223 | 0.0 | 2.0 | 0.00 | 0.05 | 0.05 | 49 | 1007.7 |
| 20260510010029 | 79 | 281 | 0.0 | 2.0 | 0.00 | 0.05 | 0.05 | 49 | 1007.6 |
| 20260510004526 | 79 | 182 | 0.0 | 2.0 | 0.00 | 0.05 | 0.05 | 50 | 1007.8 |
| 20260510003027 | 79 | 295 | 0.0 | 3.0 | 0.00 | 0.05 | 0.05 | 50 | 1007.8 |
| 20260510001524 | 79 | 202 | 1.0 | 4.0 | 0.00 | 0.05 | 0.05 | 51 | 1007.8 |
| 20260510000024 | 79 | 240 | 0.0 | 3.0 | 0.00 | 0.05 | 0.05 | 52 | 1007.9 |
| 20260509234526 | 79 | 238 | 1.0 | 3.0 | 0.00 | 0.05 | 0.05 | 53 | 1008.0 |
| 20260509233019 | 79 | 288 | 1.0 | 4.0 | 0.00 | 0.05 | 0.05 | 53 | 1008.1 |
| 20260509231517 | 80 | 294 | 1.0 | 4.0 | 0.00 | 0.05 | 0.05 | 53 | 1008.0 |
| 20260509230016 | 80 | 267 | 1.0 | 4.0 | 0.00 | 0.05 | 0.05 | 52 | 1008.1 |
| 20260509224513 | 80 | 126 | 2.0 | 4.0 | 0.00 | 0.05 | 0.05 | 51 | 1008.2 |
| 20260509223011 | 81 | 155 | 0.0 | 4.0 | 0.00 | 0.05 | 0.05 | 48 | 1008.4 |
| 20260509221510 | 82 | 263 | 1.0 | 4.0 | 0.00 | 0.05 | 0.05 | 47 | 1008.6 |
| 20260509220008 | 83 | 257 | 1.0 | 4.0 | 0.00 | 0.05 | 0.05 | 46 | 1008.6 |
| 20260509214507 | 83 | 225 | 1.0 | 4.0 | 0.00 | 0.05 | 0.05 | 46 | 1008.7 |
| 20260509213004 | 84 | 219 | 1.0 | 3.0 | 0.00 | 0.05 | 0.05 | 41 | 1008.8 |
| 20260509211508 | 83 | 78 | 1.0 | 4.0 | 0.00 | 0.05 | 0.05 | 44 | 1008.8 |
| 20260509210009 | 84 | 220 | 0.0 | 3.0 | 0.00 | 0.05 | 0.05 | 46 | 1008.9 |
| 20260509204601 | 84 | 231 | 1.0 | 4.0 | 0.00 | 0.05 | 0.05 | 46 | 1009.1 |
| 20260509203200 | 82 | 244 | 1.0 | 3.0 | 0.00 | 0.05 | 0.05 | 48 | 1009.0 |
| 20260509201603 | 83 | 256 | 1.0 | 3.0 | 0.00 | 0.05 | 0.05 | 45 | 1009.2 |
| 20260509194558 | 82 | 203 | 1.0 | 4.0 | 0.00 | 0.05 | 0.05 | 48 | 1009.5 |
| 20260509193052 | 83 | 236 | 1.0 | 4.0 | 0.00 | 0.05 | 0.05 | 48 | 1009.5 |
| 20260509191550 | 81 | 221 | 1.0 | 5.0 | 0.00 | 0.05 | 0.05 | 49 | 1009.6 |
| 20260509190058 | 81 | 203 | 2.0 | 5.0 | 0.00 | 0.05 | 0.05 | 47 | 1009.8 |
| 20260509184545 | 81 | 250 | 0.0 | 4.0 | 0.00 | 0.05 | 0.05 | 49 | 1010.0 |
| 20260509183042 | 80 | 250 | 0.0 | 2.0 | 0.00 | 0.05 | 0.05 | 51 | 1010.0 |
| 20260509181543 | 80 | 303 | 0.0 | 4.0 | 0.00 | 0.05 | 0.05 | 52 | 1010.1 |
| 20260509180042 | 79 | 223 | 1.0 | 3.0 | 0.00 | 0.05 | 0.05 | 51 | 1010.1 |
| 20260509174540 | 78 | 311 | 0.0 | 3.0 | 0.00 | 0.05 | 0.05 | 49 | 1010.1 |
| 20260509173136 | 79 | 246 | 0.0 | 3.0 | 0.00 | 0.05 | 0.05 | 53 | 1010.1 |
| 20260509171619 | 78 | 218 | 0.0 | 2.0 | 0.00 | 0.05 | 0.05 | 54 | 1010.1 |
| 20260509170038 | 77 | 192 | 1.0 | 3.0 | 0.01 | 0.05 | 0.05 | 56 | 1010.1 |
| 20260509164544 | 76 | 109 | 0.0 | 2.0 | 0.01 | 0.05 | 0.05 | 56 | 1010.2 |
| 20260509163030 | 74 | 124 | 0.0 | 1.0 | 0.01 | 0.05 | 0.05 | 55 | 1010.2 |
| 20260509161526 | 71 | 128 | 0.0 | 1.0 | 0.01 | 0.05 | 0.05 | 58 | 1010.3 |
| 20260509160023 | 68 | 128 | 0.0 | 1.0 | 0.00 | 0.04 | 0.04 | 60 | 1010.3 |
| 20260509154520 | 65 | 108 | 0.0 | 1.0 | 0.00 | 0.04 | 0.04 | 67 | 1010.5 |
| 20260509153013 | 60 | 33 | 0.0 | 0.0 | 0.00 | 0.04 | 0.04 | 74 | 1010.5 |
| 20260509151509 | 57 | 33 | 0.0 | 0.0 | 0.00 | 0.04 | 0.04 | 79 | 1010.5 |
| 20260509150014 | 54 | 311 | 0.0 | 0.0 | 0.00 | 0.04 | 0.04 | 82 | 1010.5 |
| 20260509144503 | 52 | 311 | 0.0 | 0.0 | 0.00 | 0.04 | 0.04 | 87 | 1010.6 |
| 20260509143102 | 51 | 311 | 0.0 | 0.0 | 0.00 | 0.04 | 0.04 | 90 | 1010.6 |
| 20260509141600 | 50 | 311 | 0.0 | 0.0 | 0.00 | 0.04 | 0.04 | 92 | 1010.5 |
| 20260509140104 | 49 | 311 | 0.0 | 0.0 | 0.00 | 0.04 | 0.04 | 92 | 1010.5 |
| 20260509134627 | 49 | 311 | 0.0 | 0.0 | 0.00 | 0.04 | 0.04 | 92 | 1010.4 |
| 20260509133154 | 48 | 311 | 0.0 | 0.0 | 0.00 | 0.04 | 0.04 | 92 | 1010.5 |
| 20260509131607 | 48 | 311 | 0.0 | 0.0 | 0.00 | 0.04 | 0.04 | 92 | 1010.4 |